User: anonymous   Login
Location: Unspecified
(0.0000°N, 0.0000°E)
Time: 07:21:17
(UTC+00:00)
Language:

AUBIESAT-1 - Orbit

View from above orbital plane
View from above orbital plane
View from above satellite
View from above satellite

Ground track
Ground track

The orbit data is extracted from the following two-line orbital elements,

1 37854U 11061E   15210.71467182  .00002885  00000-0  17668-3 0  9995
2 37854 101.7130 086.4282 0184943 305.8878 093.2165 14.98741285203594
Epoch (UTC): 29 July 2015 17:09:07
Eccentricity: 0.0184943
inclination: 101.7130°
perigee height: 442 km
apogee height: 699 km
right ascension of ascending node: 86.4282°
argument of perigee: 305.8878°
revolutions per day: 14.98741285
mean anomaly at epoch: 93.2165°
orbit number at epoch: 20359

The dashed part of the orbit path shows where the satellite is in the earth's shadow,  

DLR